Starlink 4080

operational
NORAD ID: 52835 Int'l Des: 2022-062 Owner: SPXS Country: US Constellation: starlink
LEOCIRCULAR

Starlink 4080について

説明を読み込み中...

リアルタイム位置

3D地球を読み込み中...

次回通過

高度履歴

Altitude vs Time

uPlot chart will show altitude changes over time

軌道要素

1 52835U 22062F 26033.45150800 -.00000179 00000-0 68604-5 0 9999
2 52835 53.2167 192.3096 0001396 90.9058 269.2094 15.08837668200465
Epoch: Feb 2, 2026 • Age: 25 hours

現在のステータス

高度 541.7 km
速度 7.59 km/s
衛星直下点 -6.18°S, 65.99°E
打ち上げ日 Jun 17, 2022
運用期間 3.6 years
タイプ internet

技術仕様

分類 Payload
質量 297.00 kg
乾燥質量 275.00 kg
総質量 297.00 kg
長さ 0.20 m
直径 2.80 m
スパン 9.00 m
形状 Box + pan
製造者 SPXS
バスタイプ Starlink
フェーズステータス In Orbit
所有者/国 SPXS/US

大規模コンステレーション

Loading constellations...